M3NIC-5 Weather Reports


Display with metric or nautical units.
time (UTC)temp
F
wind
direction
speed
MPH
gust
MPH
rain 1hr
in
rain 24hr
in
rain mn
in
humidity
%
barometer
mb
20260507180004 54 116 5.0 8.0 0.00 0.00 0.00 76 1017.1
20260507170003 55 115 3.0 9.0 0.00 0.00 0.00 70 1017.2
20260507160004 58 102 3.0 12.0 0.00 0.00 0.00 61 1017.2
20260507150002 58 109 7.0 12.0 0.00 0.00 0.00 58 1017.5
20260507133003 58 148 6.0 12.0 0.00 0.00 0.00 67 1017.6
20260507130004 58 107 8.0 16.0 0.00 0.00 0.00 67 1017.8
20260507113003 56 128 5.0 12.0 0.00 0.00 0.00 70 1017.8
20260507103004 56 126 6.0 12.0 0.00 0.00 0.00 69 1018.2
20260507100004 56 152 6.0 12.0 0.00 0.00 0.00 70 1018.3
20260507090004 55 152 5.0 9.0 0.00 0.00 0.00 71 1018.0
20260507080005 54 138 3.0 7.0 0.00 0.00 0.00 72 1017.9
20260507073002 53 59 3.0 8.0 0.00 0.00 0.00 75 1017.8
20260507063005 49 345 0.0 3.0 0.00 0.00 0.00 86 1017.8
20260507060003 48 14 0.0 3.0 0.00 0.00 0.00 87 1017.5
20260507053005 47 321 1.0 3.0 0.00 0.00 0.00 88 1017.2
20260507040003 47 333 1.0 3.0 0.00 0.00 0.00 88 1016.9
20260507030003 48 326 1.0 3.0 0.00 0.00 0.00 87 1016.7
20260506233004 49 33 0.0 0.0 0.00 0.00 0.00 82 1016.3
20260506220003 50 57 0.0 2.0 0.00 0.00 0.00 78 1016.0
20260506210006 51 78 0.0 3.0 0.00 0.00 0.00 77 1015.8
20260506200005 51 61 1.0 3.0 0.00 0.00 0.00 76 1015.5
20260506190005 52 52 0.0 7.0 0.00 0.00 0.00 72 1014.9
20260506183007 53 12 0.0 5.0 0.00 0.00 0.00 71 1014.6